Probability
0 0 0 0 0 0 0 0 0 0 1 1 1 0 0 0 0 0 0 0 0 0 0 0 0 0 0 0 0 0 0 0 0 0 0 0 0 0 0 0 0 0 0
0 0 0 0 0 0 0 0 0 0 0 0 0 0 0 0 0 0 0 0 0 0 0 0 0 0 0 0 0 0 0 0 0 0 0 0 0 0 0 0 0 0 0
0 0 0 0 0 0 0 0 0 0 0 0 0 0 0 0 0 0 0 0 0 0 0 0 0 0 0 0 0 0 0 0 0 0 0 0 0 0 0 0 0 0 0
0 0 0 0 0 0 0 0 0 0 0 0 0 0 0 0 0 0 0 0 0 0 0 0 0 0 0 0 0 0 0 0 0 0 0 0 0 0 0 0 0 0 0
0 0 0 0 0 0 0 0 0 0 0 0 0 0 0 0 0 0 0 0 0 0 0 0 0 0 0 0 0 0 0 0 0 0 0 0 0 0 0 0 0 0 0
0 0 0 0 0 0 0 0 0 0 0 0 0 0 0 0 0 0 0 0 0 0 0 0 0 0 0 0 0 0 0 0 0 0 0 0 0 0 0 0 0 0 0
0 0 0 0 0 0 0 0 0 0 0 0 0 0 0 0 0 0 0 0 0 0 0 0 0 0 0 0 0 0 0 0 0 0 0 0 0 0 0 0 0 0 0
0 0 0 0 0 0 0 0 0 0 0 0 0 0 0 0 0 0 0 0 0 0 0 0 0 0 0 0 0 0 0 0 0 0 0 0 0 0 0 0 0 0 0
0 0 0 0 0 0 0 0 0 0 0 0 0 0 0 0 0 0 0 0 0 0 0 0 0 0 0 0 0 0 0 0 0 0 0 0 0 0 0 0 0 0 0
0 0 0 0 0 0 0 0 0 0 0 0 0 0 0 0 0 0 0 0 0 0 0 0 0 0 0 0 0 0 0 0 0 0 0 0 0 0 0 0 0 0 0
0 0 0 0 0 0 0 0 0 0 0 0 0 0 0 0 0 0 0 0 0 0 0 0 0 0 0 0 0 0 0 0 0 0 0 0 0 0 0 0 0 0 0
0 0 0 0 0 0 0 0 0 0 0 0 0 0 0 0 0 0 0 0 0 0 0 0 0 0 0 0 0 0 0 0 0 0 0 0 0 0 0 0 0 0 0
1 0 0 0 0 0 0 0 0 0 0 0 0 0 0 0 0 0 0 0 0 0 0 0 0 0 0 0 0 0 0 0 0 0 0 0 0 0 0 0 0 0 0
5 4 2 0 0 0 0 0 0 0 0 0 0 0 0 0 0 0 0 0 0 0 0 0 0 0 0 0 0 0 0 0 0 0 0 0 0 0 0 0 0 0 0
17 17 14 8 3 1 0 0 0 0 0 0 0 0 0 0 0 0 0 0 0 0 0 0 0 0 0 0 0 0 0 0 0 0 0 0 0 0 0 0 0 0 0
27 32 34 27 16 7 3 1 0 0 0 0 0 0 0 0 0 0 0 0 0 0 0 0 0 0 0 0 0 0 0 0 0 0 0 0 0 0 0 0 0 0 0
21 35 49 50 40 26 14 5 1 0 0 0 0 0 0 0 0 0 0 0 0 0 0 0 0 0 0 0 0 0 0 0 0 0 0 0 0 0 0 0 0 0 0
8 20 43 61 64 55 38 21 10 4 1 0 0 0 0 0 0 0 0 0 0 0 0 0 0 0 0 0 0 0 0 0 0 0 0 0 0 0 0 0 0 0 0
1 6 22 48 68 75 67 51 34 20 9 4 1 0 0 0 0 0 0 0 0 0 0 0 0 0 0 0 0 0 0 0 0 0 0 0 0 0 0 0 0 0 0
0 0 5 21 47 71 81 77 65 48 31 17 8 3 1 0 0 0 0 0 0 0 0 0 0 0 0 0 0 0 0 0 0 0 0 0 0 0 0 0 0 0 0
0 0 0 5 20 48 73 85 84 74 59 40 22 10 4 1 0 0 0 0 0 0 0 0 0 0 0 0 0 0 0 0 0 0 0 0 0 0 0 0 0 0 0
0 0 0 0 5 21 48 73 84 81 71 56 38 21 10 3 1 0 0 0 0 0 0 0 0 0 0 0 0 0 0 0 0 0 0 0 0 0 0 0 0 0 0
0 0 0 0 0 6 23 50 70 75 71 64 53 36 19 7 2 0 0 0 0 0 0 0 0 0 0 0 0 0 0 0 0 0 0 0 0 0 0 0 0 0 0
0 0 0 0 0 1 9 27 51 66 72 70 61 47 29 12 5 2 0 0 0 0 0 0 0 0 0 0 0 0 0 0 0 0 0 0 0 0 0 0 0 0 0
0 0 0 0 0 0 2 12 31 51 61 57 50 45 34 17 8 4 1 0 0 0 0 0 0 0 0 0 0 0 0 0 0 0 0 0 0 0 0 0 0 0 0
0 0 0 0 0 0 1 5 18 37 44 37 34 38 35 20 9 5 2 0 0 0 0 0 0 0 0 0 0 0 0 0 0 0 0 0 0 0 0 0 0 0 0
Wind_Speed
5 6 14 15 14 13 13 14 15 15 15 15 14 13 12 10 9 7 6 5 6 8 10 12 14 14 13 12 12 12 12 12 12 11 11 10 9 9 9 8 7 4 7
8 8 14 15 15 14 14 14 15 15 14 14 13 12 11 9 8 7 7 7 8 9 11 13 14 13 12 12 12 12 11 10 9 9 8 7 6 7 7 6 5 3 6
10 9 12 14 14 14 14 14 15 14 14 13 13 12 10 9 9 8 8 9 10 11 13 13 13 12 11 11 11 11 10 9 8 6 6 3 3 5 6 5 4 4 5
11 8 9 14 14 14 14 14 15 14 14 13 12 11 10 10 9 9 9 10 12 13 13 13 12 11 11 10 10 10 9 8 7 6 3 2 3 2 5 4 4 3 3
9 8 10 14 14 14 14 14 14 15 14 13 12 11 10 10 10 10 10 10 11 12 11 11 10 10 9 9 8 8 8 7 7 6 3 2 2 2 5 4 4 3 2
8 7 9 14 14 14 13 14 14 15 15 14 13 11 10 10 10 10 10 10 10 10 9 9 9 8 7 7 7 7 7 8 7 4 2 2 3 2 7 7 7 7 7
7 6 8 14 14 14 13 14 14 15 15 14 13 12 11 10 11 10 10 9 9 8 8 8 7 7 6 6 6 7 7 7 5 4 2 2 2 7 11 13 14 14 15
8 7 7 13 13 12 13 13 14 15 15 14 14 12 11 11 11 11 10 9 8 8 7 7 6 6 5 6 6 6 6 7 6 4 2 2 5 12 15 16 16 17 17
8 7 6 7 9 11 11 11 12 13 13 13 13 12 11 10 10 10 10 9 8 7 6 6 6 6 6 6 6 5 7 8 5 3 3 2 9 13 14 15 15 15 15
7 6 6 6 6 6 7 10 10 11 11 12 12 10 9 9 9 9 8 7 7 6 5 5 6 7 8 7 7 8 9 8 4 4 2 4 11 12 13 13 13 13 13
9 6 6 6 6 6 5 7 8 9 10 10 9 10 8 5 4 5 5 5 5 5 5 6 7 9 8 8 9 10 8 3 4 3 2 8 11 11 11 11 12 12 12
13 11 7 7 6 6 6 5 4 4 5 5 4 6 4 4 3 4 6 5 4 4 4 6 8 8 6 4 6 7 3 4 3 2 3 10 11 11 10 10 10 10 10
11 12 11 9 7 6 4 4 3 3 3 4 5 5 4 3 2 3 2 2 2 3 3 5 6 3 3 3 3 3 3 3 2 2 3 9 10 10 10 9 9 9 9
9 11 11 10 8 7 5 4 4 3 3 4 5 6 4 3 3 3 3 3 3 2 3 3 3 4 4 4 4 4 4 3 2 2 3 9 9 9 9 8 8 8 8
10 11 11 11 11 9 7 5 5 5 5 5 5 6 6 5 5 4 3 3 3 3 3 4 4 4 4 4 3 4 4 4 3 3 3 8 9 8 8 7 7 7 7
11 12 11 13 13 11 9 7 6 6 6 6 6 7 7 6 5 5 4 4 4 4 4 4 5 4 3 3 4 3 4 3 3 3 3 4 8 8 7 7 7 7 7
10 11 13 13 13 13 12 10 7 7 7 7 7 7 8 7 7 6 5 5 5 4 5 4 4 4 3 3 3 3 3 3 3 3 3 2 3 5 6 6 6 6 7
8 9 12 12 14 15 14 11 9 8 9 8 7 8 10 10 9 7 6 6 6 5 5 5 5 4 3 3 3 2 2 2 3 2 2 2 2 2 3 5 5 5 5
8 9 10 12 13 15 16 12 11 9 10 8 8 8 10 12 11 9 7 6 7 6 5 6 3 3 3 3 3 2 2 2 2 2 2 2 2 2 1 1 3 3 3
8 8 9 10 12 12 11 9 8 9 9 8 9 10 11 11 12 10 7 8 8 7 6 5 5 3 3 4 3 3 1 1 2 2 3 2 2 2 1 1 2 2 4
7 8 9 10 10 9 8 10 11 12 11 10 11 12 13 12 13 12 9 9 9 9 9 9 5 4 3 3 4 2 1 1 1 2 2 2 2 2 2 2 1 1 2
7 7 8 9 10 10 9 9 8 9 9 10 9 10 12 13 13 12 12 11 10 8 9 9 6 5 3 4 4 3 1 2 1 1 1 3 3 2 3 3 2 1 1
6 6 6 8 9 9 9 6 4 4 3 5 7 9 12 13 14 13 14 12 12 12 12 12 10 10 6 3 3 5 5 5 2 1 1 1 2 2 2 2 2 2 1
6 5 5 6 7 8 7 7 10 10 11 11 10 10 11 14 15 14 14 14 14 12 12 13 11 7 8 5 3 1 2 4 5 2 1 1 1 3 3 2 2 2 2
5 5 4 5 5 6 6 8 10 11 11 8 8 10 11 11 13 14 14 13 14 12 13 12 11 9 6 7 6 4 3 2 2 4 3 2 1 1 2 2 2 2 2
7 6 5 5 6 5 6 7 9 12 11 9 9 10 10 8 9 12 12 13 12 11 12 12 12 12 8 7 6 5 5 5 4 4 3 3 2 1 1 1 2 3 3
Wind_Direction
175 165 163 159 158 155 153 149 143 138 134 131 127 123 119 113 107 106 114 122 137 146 138 126 115 104 97 94 93 92 88 84 80 74 65 61 69 84 88 85 74 56 83
149 157 160 160 158 157 153 148 142 139 137 133 129 124 120 116 114 113 115 113 127 134 129 120 109 101 96 96 97 97 94 90 83 76 66 47 47 83 93 92 90 91 88
141 154 156 159 158 157 152 147 144 143 140 136 133 129 127 125 124 119 113 106 108 114 113 107 101 97 96 98 100 97 93 87 85 85 76 47 25 84 99 104 99 93 94
145 150 152 158 159 157 153 151 149 149 146 142 139 137 135 132 131 124 112 102 98 99 99 99 98 98 100 103 101 96 87 80 82 89 77 44 354 63 103 111 105 95 92
143 144 154 158 159 157 156 156 157 155 152 148 144 142 140 137 136 129 117 105 99 99 101 102 103 103 104 103 99 90 81 79 83 83 73 32 342 15 82 83 83 86 82
138 140 156 156 158 158 160 162 163 161 157 152 148 146 144 141 138 131 121 113 109 109 110 110 110 109 106 104 96 85 81 88 86 82 62 1 321 36 78 77 75 73 69
136 139 156 157 160 162 166 168 169 166 161 157 154 152 149 145 140 135 130 127 126 124 122 120 118 114 106 99 90 86 89 101 103 92 56 357 354 78 79 77 73 69 67
142 144 156 159 160 165 170 173 175 171 167 163 161 159 155 150 145 144 143 141 139 134 131 127 121 112 97 87 85 91 102 104 106 93 70 25 70 80 77 74 70 66 63
143 146 156 156 161 167 172 175 179 175 171 168 168 166 160 155 154 154 153 152 149 143 136 130 118 102 87 83 84 97 106 105 98 87 73 57 83 80 77 72 69 65 62
149 156 159 155 157 162 170 178 182 176 172 172 174 169 163 160 161 163 163 166 162 154 143 131 115 96 83 84 91 100 102 93 86 79 65 86 85 81 76 72 69 66 63
173 173 168 164 163 162 167 180 179 176 176 176 175 167 157 154 159 167 171 181 177 162 149 134 116 99 84 82 94 98 92 84 87 74 69 98 92 86 80 75 71 68 64
187 187 183 178 173 169 177 171 171 171 172 168 160 159 150 152 164 166 178 186 177 155 137 128 110 97 86 74 83 88 79 85 78 69 99 105 99 93 86 80 76 72 67
190 193 193 190 184 180 179 169 169 166 164 163 164 161 154 152 157 158 153 168 145 112 87 93 88 87 94 98 93 91 90 82 76 61 96 105 106 101 94 87 80 74 68
197 201 200 196 193 191 186 181 176 174 173 174 174 167 158 158 164 163 161 154 137 122 121 108 106 104 100 101 108 108 101 92 85 72 92 105 109 107 103 94 84 75 68
210 207 206 202 202 197 192 190 189 189 187 184 180 179 172 172 175 172 168 160 152 142 143 136 129 124 116 108 109 117 116 106 99 84 78 104 109 112 107 98 87 77 69
216 215 210 210 208 202 201 199 195 195 193 190 192 188 182 180 178 175 173 171 167 160 153 147 142 134 122 117 113 118 123 118 109 103 84 100 114 116 113 103 90 76 65
215 215 214 213 210 208 207 205 201 197 195 201 200 193 190 186 182 181 182 183 176 158 144 131 124 117 117 114 115 122 127 133 129 117 103 84 96 113 120 114 100 83 65
221 217 216 214 211 211 211 207 206 200 200 205 201 197 197 192 187 184 188 189 170 155 150 146 140 124 127 132 131 130 134 143 147 140 120 111 94 82 102 120 109 89 63
228 224 220 216 212 211 212 210 208 203 203 205 201 202 201 197 192 189 191 185 167 162 160 159 147 139 148 149 139 120 131 158 170 165 165 157 139 119 78 94 98 82 49
235 230 227 222 220 214 210 209 209 208 209 205 206 208 201 198 193 190 187 179 170 167 167 162 147 125 134 144 121 97 81 169 176 186 192 180 182 174 141 81 67 30 22
241 231 229 225 223 213 205 207 210 214 213 209 210 208 202 198 192 190 185 178 178 180 178 166 143 137 133 142 114 92 32 40 188 201 192 187 197 187 163 153 128 83 3
243 234 230 229 228 218 213 209 209 211 213 213 210 207 203 197 191 191 187 184 183 177 173 173 155 144 146 169 144 134 193 299 267 191 196 196 194 169 166 158 140 119 51
262 250 240 230 229 226 221 212 201 196 201 201 206 210 205 198 195 194 192 185 185 183 185 185 177 162 159 185 188 154 160 208 209 256 236 195 184 172 164 149 136 109 83
285 275 259 248 238 233 223 214 207 209 214 212 211 211 203 198 197 196 191 189 187 189 188 188 184 172 151 161 182 178 143 147 154 184 261 245 197 184 178 157 130 116 99
326 317 297 280 262 248 230 219 217 223 224 218 209 207 205 201 199 198 193 191 190 192 191 185 181 181 170 162 160 154 142 96 132 150 189 210 222 207 197 177 161 146 120
345 341 333 315 290 270 249 234 225 226 226 217 210 208 205 200 198 198 194 194 194 192 189 187 183 183 181 164 160 159 158 160 175 163 158 169 195 230 258 216 185 168 152